Temp
21 21 21 21 22 22 21 21 21 22 22 21 21 21 21 21 21 20 20 20 20 20 20 20 20 20 21 21 21 21 21 21 21 22 22 23 22 22 22 22 22 22 22
22 21 21 21 21 22 22 21 21 21 22 21 21 20 20 20 20 20 20 20 19 19 20 20 19 20 20 21 21 21 21 21 21 21 21 22 21 22 23 22 22 22 22
21 21 21 21 21 22 22 22 21 21 21 21 20 20 20 20 21 21 20 20 20 20 20 20 20 19 20 21 21 21 21 21 21 21 21 21 21 22 22 22 21 22 22
21 21 21 21 21 21 22 22 22 22 22 21 21 21 21 21 21 21 21 21 21 20 20 20 20 20 20 20 20 21 21 21 21 21 21 21 21 22 21 21 22 23 23
21 21 21 20 20 20 21 22 22 22 22 22 22 21 21 21 21 22 21 21 21 21 21 20 20 20 20 20 20 20 20 20 20 20 20 20 20 20 21 22 22 22 22
22 21 20 20 20 19 19 20 21 21 21 22 21 21 21 21 22 22 22 21 21 21 21 21 21 20 20 20 20 20 20 20 20 20 20 20 21 22 22 22 22 21 20
22 22 21 21 20 20 19 19 20 21 21 21 21 22 22 22 22 22 22 22 21 21 21 22 22 21 21 20 20 20 20 20 20 21 20 22 22 22 21 21 21 21 20
23 23 23 22 22 21 20 19 19 19 20 21 21 21 22 22 22 22 22 21 21 22 21 21 22 22 22 22 21 20 20 21 21 21 21 21 21 21 21 20 20 21 21
22 23 24 23 23 22 21 21 20 19 19 20 20 21 21 22 23 23 22 22 21 21 22 21 21 22 22 22 21 21 21 21 22 22 21 21 21 21 21 20 20 19 19
23 22 24 24 23 23 23 22 21 21 20 20 20 20 21 22 23 23 23 22 22 22 22 22 21 22 22 22 21 21 21 23 23 23 22 21 21 21 20 20 20 19 19
21 22 25 24 24 23 23 23 22 21 21 20 20 20 20 21 22 23 23 22 23 23 22 22 23 23 23 23 22 22 22 23 22 22 21 21 22 21 21 21 20 20 20
22 23 24 24 24 24 23 23 23 22 21 21 20 20 20 21 22 23 23 23 23 22 23 23 23 24 23 23 23 23 22 22 22 22 21 22 22 21 21 20 20 20 20
22 23 23 23 24 24 23 23 22 22 21 21 20 20 20 21 22 23 23 23 23 22 23 23 23 23 22 22 22 22 22 22 22 22 22 22 21 20 20 20 19 19 20
22 23 23 23 23 24 23 23 23 22 21 20 20 20 20 20 20 21 23 23 23 22 22 22 22 21 21 21 21 22 22 22 22 22 22 21 20 20 19 19 19 20 20
21 22 22 23 23 23 23 22 22 22 22 21 20 20 20 20 21 22 23 24 24 24 23 22 21 21 21 21 22 22 22 22 22 22 21 20 20 20 19 19 19 20 19
20 21 22 23 22 23 23 22 22 21 21 20 20 21 21 21 21 21 22 23 24 23 23 22 22 21 22 22 22 22 22 22 22 21 20 20 20 19 19 19 19 20 19
18 19 21 21 22 23 22 22 22 21 21 20 20 20 20 20 21 21 22 23 23 23 22 23 23 22 22 22 22 22 22 21 21 20 20 20 20 19 19 20 20 19 19
17 18 19 20 21 21 21 21 21 21 21 21 20 20 20 20 21 22 22 23 23 22 23 23 22 22 22 22 21 21 21 21 21 20 20 20 20 19 19 19 19 19 19
15 17 18 19 21 21 21 21 21 21 21 21 20 21 20 20 20 21 22 23 23 23 22 22 21 21 21 21 21 21 21 21 20 20 20 20 19 19 19 19 19 19 19
13 14 16 17 18 21 22 21 20 21 20 21 21 21 20 20 20 21 21 21 22 22 22 22 22 21 21 21 21 19 19 20 20 20 19 19 19 18 18 18 18 18 18
12 13 14 16 18 19 20 19 20 20 20 20 20 20 21 20 19 19 20 20 20 21 21 22 21 21 21 21 22 25 17 18 18 18 18 18 17 17 17 17 17 17 17
11 12 13 14 15 17 17 17 17 17 17 18 18 18 19 19 20 18 18 19 20 21 21 19 19 20 19 19 18 17 18 18 18 18 17 17 17 17 17 17 17 17 16
10 10 12 13 13 15 15 16 16 16 16 17 17 17 17 17 19 19 18 17 17 17 17 17 17 17 17 17 18 18 18 17 17 17 17 17 17 16 16 16 16 15 15
10 10 10 11 12 11 12 13 15 15 16 16 15 15 15 16 16 16 17 16 16 16 16 16 15 15 15 16 16 15 16 16 15 15 16 16 16 16 16 15 14 14 14
7 8 9 10 10 9 12 9 13 13 12 13 14 15 15 14 13 12 14 15 13 14 15 14 14 14 14 15 14 14 14 14 15 15 15 15 15 14 13 13 13 14 14
5 6 6 6 7 8 8 10 10 10 10 11 12 12 11 11 11 13 10 8 12 13 14 13 13 13 12 13 12 13 12 12 12 13 13 13 13 12 12 12 12 13 13
Height
1526 1530 1536 1539 1544 1551 1555 1560 1565 1569 1572 1575 1577 1580 1583 1586 1588 1590 1593 1594 1595 1597 1599 1601 1602 1604 1605 1606 1607 1607 1608 1608 1607 1607 1607 1606 1606 1605 1604 1602 1600 1598 1596
1519 1524 1529 1535 1539 1544 1549 1555 1560 1564 1568 1571 1574 1577 1580 1583 1585 1587 1589 1591 1592 1594 1596 1598 1599 1601 1602 1603 1604 1605 1606 1606 1605 1604 1604 1604 1602 1601 1600 1598 1597 1595 1592
1513 1518 1522 1526 1531 1535 1542 1548 1554 1559 1563 1567 1569 1572 1575 1578 1581 1584 1586 1588 1589 1590 1592 1594 1595 1597 1598 1600 1600 1601 1602 1603 1602 1601 1599 1599 1598 1597 1595 1594 1592 1589 1588
1505 1509 1515 1518 1522 1527 1534 1540 1546 1551 1556 1561 1564 1567 1570 1573 1576 1579 1581 1583 1585 1587 1588 1590 1592 1593 1595 1596 1597 1597 1598 1598 1599 1598 1596 1595 1594 1593 1590 1588 1586 1585 1582
1499 1502 1506 1514 1520 1523 1527 1532 1539 1543 1548 1553 1557 1561 1564 1568 1571 1574 1576 1579 1581 1583 1584 1586 1587 1588 1590 1591 1591 1592 1593 1593 1593 1593 1592 1591 1589 1588 1587 1585 1581 1578 1575
1494 1496 1503 1508 1513 1516 1520 1524 1531 1536 1540 1545 1549 1553 1557 1560 1564 1568 1571 1573 1575 1577 1578 1580 1582 1584 1585 1586 1587 1587 1588 1588 1588 1588 1587 1586 1585 1584 1582 1579 1575 1571 1566
1490 1491 1496 1500 1505 1508 1514 1519 1522 1528 1534 1536 1540 1545 1549 1553 1557 1561 1565 1568 1570 1571 1573 1575 1577 1578 1579 1580 1581 1582 1583 1583 1583 1583 1581 1580 1579 1579 1578 1574 1571 1567 1564
1485 1484 1489 1492 1498 1502 1507 1512 1517 1521 1526 1530 1533 1536 1540 1544 1550 1554 1559 1562 1564 1565 1567 1569 1571 1572 1573 1574 1575 1576 1576 1576 1576 1577 1575 1575 1574 1574 1572 1569 1566 1561 1558
1481 1485 1485 1486 1491 1494 1498 1504 1510 1516 1519 1521 1525 1529 1532 1536 1542 1547 1552 1555 1557 1558 1561 1563 1565 1566 1567 1569 1570 1569 1569 1568 1569 1569 1569 1568 1568 1567 1565 1562 1559 1557 1552
1476 1479 1481 1482 1482 1486 1490 1498 1503 1508 1511 1515 1517 1521 1524 1529 1534 1539 1544 1547 1549 1551 1553 1555 1557 1558 1560 1562 1563 1563 1562 1561 1563 1563 1563 1562 1561 1559 1558 1557 1555 1552 1550
1470 1472 1471 1474 1474 1479 1485 1491 1497 1501 1504 1508 1510 1514 1517 1521 1525 1530 1535 1539 1540 1543 1545 1547 1548 1550 1552 1554 1555 1554 1553 1554 1554 1554 1554 1554 1554 1553 1552 1551 1549 1548 1546
1463 1458 1461 1464 1470 1473 1478 1483 1489 1493 1496 1499 1503 1506 1509 1513 1516 1521 1526 1530 1532 1534 1535 1537 1539 1542 1544 1546 1546 1546 1548 1549 1549 1548 1548 1548 1547 1547 1547 1545 1545 1543 1543
1449 1446 1451 1459 1463 1466 1470 1475 1480 1484 1487 1490 1493 1497 1500 1504 1507 1512 1516 1520 1524 1525 1527 1529 1531 1533 1535 1537 1538 1539 1540 1541 1541 1541 1541 1540 1541 1541 1541 1540 1540 1540 1539
1439 1442 1448 1453 1457 1460 1463 1467 1471 1473 1476 1480 1484 1488 1492 1496 1499 1503 1507 1511 1514 1517 1519 1521 1523 1526 1528 1529 1530 1531 1532 1534 1534 1534 1534 1534 1534 1534 1534 1534 1535 1535 1533
1433 1436 1441 1445 1450 1455 1457 1459 1461 1464 1467 1471 1476 1481 1486 1488 1489 1495 1497 1500 1504 1507 1511 1513 1514 1517 1518 1519 1520 1522 1524 1525 1526 1527 1528 1528 1527 1528 1528 1530 1530 1529 1527
1432 1432 1434 1438 1443 1447 1451 1453 1455 1458 1462 1465 1470 1474 1476 1480 1484 1488 1492 1493 1496 1501 1503 1504 1505 1507 1509 1511 1514 1516 1517 1519 1519 1520 1522 1523 1523 1522 1522 1523 1523 1523 1522
1432 1431 1432 1435 1438 1440 1443 1446 1449 1452 1455 1460 1464 1468 1471 1475 1478 1481 1485 1488 1491 1494 1495 1497 1498 1500 1502 1505 1506 1509 1510 1511 1515 1517 1517 1516 1518 1518 1518 1517 1516 1516 1516
1431 1430 1430 1431 1434 1435 1437 1438 1441 1443 1447 1453 1456 1463 1465 1469 1471 1475 1478 1482 1484 1485 1488 1492 1495 1497 1498 1499 1501 1503 1504 1507 1508 1510 1510 1511 1510 1510 1510 1511 1512 1510 1511
1426 1426 1426 1425 1426 1429 1431 1433 1435 1436 1441 1446 1449 1454 1458 1463 1467 1470 1472 1476 1478 1479 1483 1487 1490 1491 1493 1495 1499 1499 1497 1499 1497 1499 1503 1500 1505 1504 1503 1505 1506 1506 1506
1424 1422 1420 1420 1420 1421 1424 1425 1428 1431 1434 1437 1441 1447 1452 1457 1459 1463 1467 1472 1474 1475 1476 1478 1481 1481 1482 1487 1494 1492 1496 1497 1495 1494 1494 1494 1499 1499 1499 1499 1500 1500 1502
1420 1420 1419 1418 1418 1416 1416 1419 1421 1425 1428 1431 1436 1440 1448 1454 1456 1460 1466 1468 1469 1470 1472 1474 1475 1475 1474 1473 1482 1484 1478 1490 1480 1491 1489 1491 1494 1496 1493 1494 1496 1497 1498
1420 1421 1422 1414 1414 1413 1414 1415 1417 1420 1423 1428 1435 1440 1441 1446 1449 1455 1459 1460 1461 1462 1463 1462 1464 1464 1461 1473 1475 1480 1484 1486 1483 1484 1485 1491 1489 1487 1488 1489 1490 1493 1494
1420 1421 1421 1420 1411 1412 1414 1412 1414 1418 1421 1422 1431 1434 1435 1438 1439 1447 1452 1456 1456 1455 1456 1458 1460 1461 1466 1473 1464 1473 1474 1475 1471 1478 1486 1486 1484 1484 1483 1485 1485 1487 1488
1422 1423 1424 1419 1419 1414 1410 1412 1411 1416 1418 1420 1426 1426 1425 1435 1437 1440 1443 1451 1455 1451 1452 1453 1459 1459 1463 1463 1464 1469 1471 1471 1472 1477 1476 1475 1475 1475 1475 1477 1479 1480 1482
1422 1423 1425 1426 1420 1424 1403 1412 1406 1417 1417 1418 1419 1424 1426 1430 1434 1433 1440 1441 1452 1446 1445 1451 1456 1455 1453 1456 1459 1464 1465 1466 1468 1468 1468 1467 1467 1467 1470 1472 1471 1473 1475
1424 1425 1426 1429 1429 1420 1426 1413 1416 1420 1425 1425 1422 1425 1434 1437 1434 1433 1438 1447 1440 1441 1442 1447 1445 1445 1450 1453 1456 1460 1462 1463 1462 1462 1462 1462 1465 1467 1468 1467 1468 1469 1469
Wind_Speed
44 44 46 48 43 39 40 36 32 32 28 21 17 20 16 13 13 14 12 12 10 10 9 11 13 11 18 13 11 10 13 13 15 14 11 13 14 16 19 24 21 19 22
46 44 44 47 48 44 41 40 37 33 31 27 24 20 20 18 15 18 17 16 17 14 15 15 16 12 13 19 15 14 15 15 15 18 17 18 16 13 17 13 16 22 25
49 46 45 43 47 49 45 43 42 37 35 33 26 26 25 24 20 18 20 18 22 21 15 14 18 18 17 14 21 20 19 19 18 21 22 19 19 20 14 18 22 15 17
50 49 47 46 44 46 48 46 44 42 39 39 36 33 33 31 28 24 22 21 20 25 22 19 19 19 21 20 19 20 19 21 22 22 24 25 21 16 17 17 22 27 30
47 48 48 44 43 42 43 45 46 45 44 42 40 39 36 32 30 27 25 24 22 22 24 26 24 23 22 21 22 22 21 20 20 20 22 22 22 20 23 29 32 33 32
47 47 45 43 41 42 42 43 42 47 47 44 44 43 40 37 34 30 27 26 25 25 23 22 24 24 24 22 20 21 22 24 24 25 27 29 30 30 29 27 28 34 37
52 50 47 45 43 41 43 43 42 42 44 47 44 43 42 40 37 33 29 27 25 25 25 23 22 23 24 25 25 25 25 23 23 23 26 26 26 22 24 28 32 33 35
48 51 49 48 45 41 40 44 43 42 41 43 45 45 43 42 38 35 31 29 28 26 26 25 24 23 22 22 22 22 25 25 24 24 26 25 24 27 28 33 31 35 33
27 48 50 49 46 43 41 42 43 44 43 42 42 42 42 41 38 36 34 33 34 33 31 30 29 28 25 24 24 27 30 32 30 30 30 31 33 34 31 30 28 29 32
32 43 52 49 47 45 43 42 42 42 42 43 44 43 42 41 39 37 35 35 36 37 36 35 34 33 31 30 31 32 33 32 30 29 31 31 27 25 24 24 23 26 27
25 44 47 49 46 46 43 43 43 43 41 43 43 44 43 41 39 37 36 37 38 37 38 37 36 34 33 31 31 34 34 23 20 20 22 23 24 24 23 19 16 18 21
26 18 42 42 46 45 44 45 45 44 43 42 42 43 42 41 39 37 36 37 37 39 39 37 36 33 31 29 25 22 19 18 21 22 24 25 25 25 18 11 13 15 18
17 16 26 44 41 43 45 45 46 45 44 43 44 43 43 42 40 38 37 36 36 38 39 37 36 36 33 26 22 22 22 24 27 28 28 28 26 22 12 14 16 18 23
20 20 22 35 42 41 44 45 46 46 47 45 43 42 41 41 40 39 38 35 34 35 35 35 36 36 36 36 36 34 33 31 29 29 28 24 22 13 12 18 21 25 27
20 23 23 27 40 43 44 43 45 46 46 45 43 40 39 39 41 38 37 35 33 31 28 32 37 37 36 37 38 37 34 32 30 29 26 20 12 15 17 19 21 24 21
19 17 22 25 37 44 43 46 41 41 42 41 39 37 39 37 35 33 31 31 27 23 25 30 29 29 33 35 33 33 35 35 32 24 17 16 16 16 17 20 18 15 17
15 12 17 26 34 40 40 43 46 41 38 38 37 35 33 32 28 34 30 27 24 29 31 31 28 24 18 14 16 17 18 17 16 17 16 15 18 19 18 12 11 13 12
11 17 15 20 28 26 30 36 37 39 40 37 33 33 30 31 29 31 31 31 32 39 35 28 21 17 12 8 12 17 17 18 20 20 18 19 18 17 15 14 13 12 11
3 9 13 18 26 27 29 31 33 36 33 35 36 31 34 35 30 24 21 23 25 22 24 22 17 14 16 17 19 17 16 19 26 23 21 15 16 15 14 13 14 13 16
3 3 4 14 20 29 31 26 32 35 33 33 37 35 33 32 29 27 25 22 20 22 23 23 19 19 17 16 18 13 22 26 27 22 15 15 18 18 13 12 16 17 18
5 7 2 11 22 19 24 24 25 33 33 30 31 31 26 28 19 15 9 16 18 19 21 23 23 12 13 14 39 54 44 28 16 12 11 11 11 10 11 15 15 16 15
4 5 7 9 10 17 18 20 20 23 29 26 22 20 21 19 15 17 17 20 21 20 20 22 21 17 19 30 24 27 25 21 17 14 11 14 15 16 17 18 20 20 19
1 5 4 7 16 15 14 15 19 22 29 30 23 22 17 10 13 17 20 20 18 18 17 20 23 25 26 25 18 18 17 17 16 18 20 19 16 18 19 22 23 23 24
4 4 6 9 8 16 26 27 21 16 24 26 25 20 19 18 17 23 26 24 21 22 21 21 20 19 17 13 10 14 18 21 19 19 19 18 18 20 20 20 15 12 14
9 7 7 6 11 12 20 20 26 25 24 27 28 27 29 29 28 23 22 22 20 17 13 9 8 7 8 10 11 11 12 13 14 14 13 14 15 17 18 17 17 16 17
19 16 15 13 12 12 12 19 21 22 22 21 23 17 10 10 17 20 14 10 8 6 7 7 5 3 3 4 5 7 7 8 9 9 11 14 13 14 15 17 19 20 22
Wind_Direction
219 218 213 211 212 206 205 205 204 209 211 218 206 215 226 241 235 225 213 213 210 226 222 214 207 212 221 213 226 241 234 251 273 273 274 258 273 278 281 291 306 317 321
222 220 221 217 216 214 211 211 212 210 210 218 221 220 219 231 237 231 230 222 230 241 235 234 239 231 224 217 227 230 237 245 257 270 282 290 291 292 304 311 319 317 313
222 222 223 224 220 220 218 216 214 218 214 212 215 222 227 234 236 235 235 228 223 235 236 238 233 242 250 244 231 237 241 244 250 262 274 282 295 311 315 312 309 310 311
222 224 225 225 226 222 222 220 221 220 221 217 219 226 228 237 244 246 244 236 226 228 239 240 243 242 249 253 249 245 250 255 257 264 276 285 292 299 303 304 298 301 306
219 222 228 229 228 230 226 224 221 225 225 226 227 229 234 235 240 243 242 240 237 232 233 240 243 246 252 256 258 259 261 263 267 270 276 284 289 290 290 298 303 308 311
214 222 225 226 228 227 229 228 223 222 228 230 230 232 234 239 242 243 242 242 244 245 242 240 243 247 251 255 259 264 262 266 270 272 275 277 283 288 299 305 307 313 317
210 218 223 226 226 227 226 228 230 225 223 230 234 234 235 238 243 244 244 244 242 245 248 250 250 249 252 254 256 258 262 265 268 274 276 280 288 300 304 305 310 311 311
214 216 221 225 227 227 225 226 229 231 229 229 232 236 239 240 240 243 243 244 248 249 251 255 258 260 258 258 256 258 262 265 266 269 274 284 291 297 297 302 303 305 308
220 224 223 224 225 226 226 226 227 228 231 234 236 238 239 241 242 242 241 241 243 250 254 255 257 261 264 264 262 261 264 269 275 278 282 287 291 291 292 295 298 302 305
248 238 225 225 227 227 231 230 231 230 233 236 238 241 243 245 244 244 242 242 244 246 252 255 258 262 265 267 266 269 269 272 274 277 279 282 284 291 296 294 300 296 301
277 236 228 228 228 231 231 232 233 233 235 236 240 242 245 247 248 246 244 244 247 249 252 256 258 259 262 265 266 266 268 283 281 282 283 287 295 297 303 298 284 286 294
234 235 229 232 229 229 231 232 234 234 234 237 239 242 245 248 249 249 246 246 250 252 255 259 261 263 264 265 263 260 260 269 272 274 278 286 292 299 300 275 278 290 297
235 222 237 228 228 229 228 229 230 232 234 235 235 240 243 247 249 250 251 252 254 254 257 259 261 263 265 264 257 258 257 255 258 262 271 285 292 299 281 292 287 285 292
260 238 229 232 228 226 229 229 230 231 231 231 232 234 241 243 244 251 253 255 256 254 256 256 256 257 256 254 251 254 259 262 266 272 279 284 292 289 284 277 279 288 296
276 253 248 230 231 227 228 228 229 234 236 232 234 237 235 239 248 248 253 253 254 254 253 251 251 251 252 252 252 254 258 263 266 273 278 283 272 272 270 274 283 290 296
281 260 250 238 232 225 224 226 228 233 235 239 243 245 246 248 248 253 251 256 254 249 244 246 249 251 254 258 261 263 262 263 266 268 263 275 274 273 270 279 288 294 305
271 250 217 213 222 225 227 227 228 229 239 237 233 237 243 245 248 238 246 243 245 243 244 246 245 250 257 260 261 257 254 251 254 253 261 257 263 273 279 278 283 287 289
268 250 232 218 218 224 233 234 236 236 231 232 222 232 232 234 242 239 236 237 237 238 238 242 242 244 247 258 271 270 268 256 248 249 248 254 248 259 262 270 274 265 277
295 238 241 234 229 230 231 238 238 238 233 230 227 223 225 219 226 232 235 231 230 223 224 237 240 233 242 250 256 266 251 261 251 238 245 243 256 258 264 268 264 268 276
37 63 216 225 237 240 240 240 230 232 224 224 220 222 217 216 219 228 238 234 219 220 208 207 222 239 245 244 252 274 277 253 255 256 260 263 268 260 252 274 270 263 264
42 34 106 211 228 215 227 221 228 225 212 214 218 205 220 231 214 194 208 222 217 216 222 226 235 254 263 285 268 264 264 262 261 262 253 237 229 245 257 271 273 270 268
19 53 47 101 153 182 186 169 158 157 155 156 159 165 167 184 198 205 220 215 217 221 223 219 220 218 211 244 215 207 220 216 219 236 222 225 229 238 252 263 267 268 261
1 28 68 66 101 144 144 166 170 167 166 159 161 170 176 213 209 215 210 209 194 197 204 204 207 196 193 191 204 237 236 227 219 227 233 239 251 257 262 266 268 267 262
96 110 72 68 63 103 121 118 138 153 166 176 185 192 180 190 194 207 203 195 187 184 176 176 178 174 180 184 198 204 215 216 222 233 246 257 265 270 271 269 269 277 282
64 90 101 106 71 40 83 104 112 126 122 140 159 175 176 162 156 146 161 177 179 167 166 176 210 219 226 225 230 238 236 236 242 254 267 274 272 264 257 258 257 253 258
69 69 71 84 111 105 86 79 91 110 117 126 127 124 123 125 145 156 141 156 144 157 178 188 190 206 222 232 240 262 280 287 293 296 299 303 291 266 253 255 262 265 261